Temperature
20 19 19 19 22 24 25 25 25 25 25 24 24 24 24 24 23 22 18 18 18 18 18 18 18 18 18 18 18 18 18 18 18 18 18 18 18 18 18 18 18 18 18 18 18 18 18 18 18
19 20 19 21 24 25 24 25 25 25 25 23 23 24 24 23 21 20 18 18 18 18 18 17 18 18 18 18 17 17 17 18 18 18 18 18 18 18 18 18 18 18 18 18 18 18 18 18 18
20 20 21 24 24 25 25 25 25 25 24 24 24 23 23 22 20 19 19 18 18 18 18 17 18 18 17 17 17 17 17 17 17 17 17 17 17 17 17 17 18 18 18 18 18 18 18 18 18
19 20 22 24 25 25 25 25 25 25 24 23 24 23 22 20 20 19 18 18 18 18 18 17 18 18 17 17 17 17 17 17 17 17 17 17 17 17 17 17 17 17 17 17 17 18 18 18 18
20 22 24 25 25 25 25 25 25 25 25 24 24 24 22 20 19 19 18 18 18 18 18 17 18 18 17 17 17 17 17 17 17 17 17 17 17 17 17 17 17 17 17 17 17 17 17 17 17
21 23 24 25 25 25 25 25 25 25 25 24 23 24 22 20 19 19 18 18 18 18 17 17 18 17 17 17 17 17 16 16 16 16 16 16 16 16 17 17 17 17 17 17 17 17 17 17 17
23 24 24 25 24 25 25 25 25 25 25 24 23 24 22 20 19 19 18 18 18 18 17 17 17 17 17 17 17 16 16 16 16 16 16 16 16 16 16 16 16 16 17 17 17 17 17 17 17
21 24 24 25 24 25 25 25 24 25 24 23 23 24 23 21 19 19 19 18 18 18 18 17 17 17 17 16 16 16 16 16 16 16 16 16 15 16 16 16 16 16 16 16 16 17 17 17 17
21 24 24 25 25 25 25 25 24 23 23 23 22 23 22 21 20 19 19 19 18 18 18 17 17 17 16 16 16 16 16 15 15 15 15 15 15 15 15 15 15 16 16 16 16 16 16 16 17
22 24 25 25 25 26 25 25 24 24 24 23 23 22 21 20 20 20 20 20 19 18 18 18 17 17 16 16 16 15 15 15 15 15 15 15 15 15 15 15 15 15 15 16 16 16 16 16 16
23 24 25 25 25 25 25 24 24 24 25 24 24 23 21 20 20 20 20 20 19 19 18 18 17 17 16 16 16 15 15 15 14 14 14 14 14 14 15 15 15 15 15 15 15 15 16 16 16
24 25 24 25 24 24 25 24 24 24 25 24 24 23 21 21 21 21 20 20 19 18 18 17 17 17 16 16 15 15 15 15 14 14 14 14 14 14 14 14 14 14 14 15 15 15 15 15 16
24 25 24 24 24 24 24 24 24 24 24 23 23 22 22 22 21 21 20 20 19 18 18 17 17 16 16 16 15 15 15 14 14 14 14 14 14 14 14 14 14 14 14 14 14 15 15 15 15
25 25 24 24 24 24 24 25 24 25 23 23 23 22 22 22 21 21 20 20 19 18 18 17 17 16 16 16 15 15 14 14 14 14 13 14 14 14 14 14 14 14 14 14 14 14 15 15 15
24 25 25 25 25 24 24 25 25 25 23 23 23 23 22 21 21 21 20 20 19 18 18 17 16 16 16 15 15 14 14 14 14 13 13 13 13 13 13 13 13 14 14 14 14 14 14 15 15
25 25 25 25 25 24 24 25 26 24 24 24 24 23 22 21 21 21 20 19 19 18 18 17 16 16 15 15 14 14 14 14 14 13 13 13 13 13 13 13 13 13 13 13 13 14 14 14 15
25 25 25 25 25 25 24 25 26 24 24 24 24 23 22 21 21 20 19 19 18 18 17 17 16 16 15 15 14 14 14 13 13 13 13 13 13 13 13 13 13 13 13 13 13 14 14 14 14
25 25 25 25 25 25 25 25 26 25 24 24 24 23 23 22 21 20 19 19 18 18 17 17 16 15 15 14 14 14 14 13 13 13 13 13 12 12 12 13 13 13 13 13 13 13 13 14 14
25 25 25 26 25 25 25 26 26 25 24 24 24 24 23 22 21 20 19 18 18 17 17 16 16 15 15 14 14 14 14 13 13 13 13 12 12 12 12 12 12 12 12 12 13 13 13 13 14
24 24 25 25 25 25 25 26 26 25 24 24 24 24 23 22 21 19 19 18 18 17 17 16 16 15 15 14 14 13 13 13 13 13 12 12 12 12 12 12 12 12 12 12 12 12 13 13 13
24 24 25 25 24 24 25 26 26 25 24 23 23 23 22 21 21 20 19 18 17 17 17 16 15 15 15 14 14 13 13 13 13 13 12 12 12 12 12 12 12 12 12 12 12 12 12 13 13
24 25 24 24 24 25 24 25 27 26 25 24 23 22 22 21 20 20 19 18 17 17 16 16 15 15 14 14 14 13 13 13 13 12 12 12 12 12 12 12 12 12 12 12 12 12 12 12 13
24 24 24 24 24 24 25 25 27 26 26 25 24 23 22 21 20 19 19 18 17 17 16 16 15 15 14 14 14 13 13 13 13 12 12 12 12 12 12 12 12 12 12 12 12 12 12 12 13
23 23 23 24 25 24 25 25 26 27 26 26 25 23 22 21 20 19 18 18 17 17 16 16 15 15 14 14 14 13 13 13 13 12 12 12 12 12 12 12 12 12 12 12 12 12 12 12 12
23 24 23 24 24 24 24 24 26 26 25 25 25 24 22 21 20 19 18 18 17 17 16 16 15 15 14 14 14 13 13 13 13 12 12 12 12 12 12 12 12 12 12 12 12 12 12 12 12
24 24 24 23 24 25 24 25 26 25 24 23 23 23 21 21 20 19 19 18 17 17 16 16 15 15 15 14 14 13 13 13 13 12 12 12 12 12 12 12 12 12 12 12 12 12 12 12 12
24 24 25 25 24 24 25 25 26 24 24 24 23 22 21 21 20 19 19 18 18 17 17 16 16 15 15 14 14 13 13 13 13 12 12 12 12 12 12 12 12 12 12 12 12 12 12 12 12
24 25 24 24 23 23 24 25 26 25 25 25 24 23 22 21 20 20 19 18 18 17 17 16 16 15 15 14 14 14 13 13 13 13 12 12 12 12 12 12 12 12 12 12 12 11 12 12 12
23 24 24 25 24 24 24 25 26 26 26 26 25 24 23 22 21 20 19 18 18 17 17 16 16 15 15 14 14 14 13 13 13 13 13 12 12 12 12 12 12 12 12 12 12 12 12 12 12
24 25 25 24 24 24 24 25 26 26 25 25 25 23 22 21 21 20 19 18 18 17 17 16 16 15 15 15 14 14 13 13 13 13 13 13 12 12 12 12 12 12 12 12 12 12 11 12 12
Wind_Speed
7 5 3 3 3 2 3 3 2 3 3 4 4 3 4 5 4 4 4 4 5 5 5 6 4 3 2 1 1 1 1 2 3 2 3 3 3 4 4 4 4 4 4 4 4 3 3 2 2
6 4 3 3 3 1 3 3 3 4 4 3 3 2 3 5 5 5 5 5 5 6 5 4 4 2 2 1 1 1 2 2 3 3 4 4 5 5 6 5 5 5 5 5 5 5 4 4 3
6 3 3 2 1 1 3 3 3 4 3 1 2 2 3 4 4 4 6 6 6 6 5 5 3 2 2 2 1 1 2 2 2 2 3 4 4 5 6 6 6 6 6 6 6 5 5 5 4
4 3 3 2 1 2 1 2 2 3 3 1 1 3 3 4 3 6 7 6 6 6 5 6 3 3 2 2 2 2 2 2 2 2 2 3 4 4 5 6 6 6 7 7 7 6 5 5 5
3 3 3 1 1 1 0 1 2 1 1 2 1 3 4 5 6 8 7 6 6 5 5 5 4 2 3 3 3 3 3 3 3 3 3 3 4 4 4 5 6 7 7 8 7 6 6 6 6
3 3 2 0 1 1 1 2 2 1 1 2 1 2 4 7 8 7 7 6 5 4 3 4 5 3 3 3 3 3 3 4 4 4 4 4 4 4 3 4 5 6 7 8 7 6 6 6 7
2 2 2 1 1 1 2 3 3 1 1 1 1 2 5 8 8 8 7 5 4 3 2 1 2 2 2 2 3 3 4 4 5 5 5 4 4 4 4 4 4 5 6 6 6 6 6 6 7
2 2 2 2 2 1 2 3 2 2 1 2 2 1 4 9 9 8 6 5 4 3 2 1 1 0 1 1 2 3 3 4 4 5 5 5 4 4 4 6 4 5 5 5 5 5 6 7 7
2 3 3 2 2 1 4 4 3 1 3 3 3 1 5 10 11 9 7 6 4 3 2 2 1 0 1 2 2 1 1 2 3 3 3 5 6 6 5 4 4 5 5 5 5 5 6 8 8
4 4 3 2 2 2 4 5 4 4 4 4 5 5 7 10 11 10 8 6 5 3 2 1 1 1 2 2 2 2 3 3 5 6 6 6 6 6 7 3 4 5 5 5 4 5 8 9 7
5 5 3 4 4 3 4 5 5 5 5 5 6 8 11 11 11 9 7 5 4 3 2 1 1 1 2 2 3 3 4 4 5 6 6 6 7 6 5 6 5 5 5 6 4 6 6 6 5
6 7 6 4 4 5 5 4 5 8 5 2 4 7 11 12 11 9 7 6 4 3 3 2 1 1 1 2 3 4 4 4 5 5 7 6 5 5 5 5 6 5 5 4 5 4 5 6 6
9 6 5 5 6 6 6 7 6 8 5 4 6 9 11 11 10 8 6 6 5 4 4 2 1 1 2 3 3 4 4 5 5 5 6 6 5 6 5 5 4 6 5 5 5 5 5 5 5
6 6 5 4 5 5 7 7 6 6 4 6 8 10 10 10 9 8 7 6 5 4 4 3 2 1 2 3 4 4 4 4 5 5 6 6 6 6 5 6 5 5 6 5 6 6 5 5 5
5 6 6 5 5 3 5 8 8 5 5 7 8 9 9 9 9 9 7 6 5 4 3 3 1 1 2 3 4 4 4 5 4 5 6 6 6 7 6 6 6 5 6 6 6 6 5 5 5
7 8 7 5 4 3 5 7 2 3 6 7 7 8 8 8 8 7 6 6 5 4 4 3 1 1 2 3 4 4 4 4 4 5 6 7 7 7 6 6 6 6 6 5 5 5 5 5 5
8 9 8 5 5 4 6 7 2 3 6 7 7 8 8 8 7 7 6 6 6 5 4 3 1 1 2 3 3 4 4 4 4 5 5 6 7 7 6 5 6 6 5 5 5 4 5 5 5
9 9 8 6 3 6 8 10 6 4 6 7 8 8 9 8 7 6 6 6 6 5 4 3 2 0 1 2 3 3 4 4 4 5 5 7 7 7 7 6 6 6 5 5 5 5 5 5 4
8 8 9 6 2 6 10 11 8 5 6 7 8 8 8 8 7 7 7 7 7 6 5 3 2 0 1 2 3 4 4 5 4 5 6 6 7 7 6 6 6 5 4 5 6 5 5 4 3
9 10 9 6 1 5 9 11 8 5 6 6 7 8 8 8 8 8 8 8 7 6 5 4 2 1 1 2 3 4 5 5 5 5 5 6 6 6 5 6 5 4 4 5 5 4 4 4 3
11 10 8 7 4 5 8 9 6 4 4 5 6 6 7 8 8 9 8 8 7 6 5 3 2 1 0 1 2 3 3 4 4 5 5 5 6 5 5 6 5 5 5 4 4 4 5 4 4
10 7 7 7 7 5 4 7 3 3 4 5 6 7 8 8 8 8 8 8 7 6 5 4 3 1 0 1 2 4 5 5 6 6 5 6 5 5 5 5 5 5 4 4 4 4 4 5 4
5 2 4 6 6 7 6 7 2 3 5 5 6 7 8 8 8 8 8 7 7 6 5 4 3 2 1 1 2 4 5 5 5 5 5 6 5 5 5 5 4 4 4 4 4 5 4 4 4
5 5 4 5 6 7 5 6 3 3 3 4 5 7 8 9 8 8 8 7 6 6 5 4 3 2 1 2 3 3 5 5 6 6 6 6 5 5 5 5 4 4 3 4 4 4 4 4 5
7 6 5 5 5 4 2 5 3 2 0 2 3 6 8 9 9 9 9 8 7 7 6 5 4 3 2 2 3 3 4 5 5 6 6 6 6 5 6 5 4 4 4 4 4 4 4 4 4
8 8 5 3 3 2 3 5 1 1 1 2 3 5 8 9 9 9 9 8 8 7 7 6 5 3 2 2 3 3 3 3 4 5 5 6 6 6 7 6 5 4 4 4 3 3 4 4 4
5 6 4 4 3 4 3 3 2 3 4 5 6 7 8 9 10 9 9 9 8 8 7 6 5 4 3 2 2 3 3 3 4 5 5 5 6 6 6 5 5 4 4 4 3 2 3 3 4
2 3 4 4 3 4 3 3 1 3 6 7 7 8 8 9 9 9 9 9 8 8 7 6 5 4 3 2 2 2 2 3 4 4 5 5 6 6 6 5 5 4 4 3 3 3 2 3 3
5 4 4 3 3 4 3 1 1 1 3 5 6 7 7 8 9 9 9 9 8 8 7 6 6 4 3 2 2 2 2 2 3 4 5 5 5 5 5 5 5 4 4 3 3 3 2 3 2
5 6 7 6 4 4 5 2 2 2 3 5 6 6 7 7 8 8 9 9 9 8 8 7 6 5 3 2 2 1 2 2 3 4 4 4 5 5 5 5 5 4 4 3 3 3 2 2 2
Wind_Direction
176 172 211 245 237 210 77 74 66 68 62 53 47 38 35 29 8 51 95 107 116 122 119 129 122 126 126 112 95 57 7 354 347 327 308 307 305 300 293 288 280 276 274 274 267 264 271 267 271
159 173 225 247 263 127 88 83 80 63 82 97 72 44 52 63 61 88 111 109 121 123 122 113 114 126 119 81 43 17 356 360 357 343 330 324 318 312 303 293 287 281 280 282 278 267 263 255 258
158 208 245 244 273 43 87 86 86 93 108 104 68 41 34 71 93 108 112 123 125 118 120 112 117 112 109 100 72 26 7 11 356 347 332 319 318 321 316 309 299 291 283 278 277 271 269 261 251
187 210 231 248 80 65 59 99 113 125 123 88 68 90 84 82 104 115 125 130 123 118 119 110 105 87 82 76 61 44 24 12 1 351 335 312 311 315 313 315 313 305 294 288 279 270 266 268 261
222 246 239 205 74 77 143 152 160 135 110 101 81 79 103 115 118 128 136 136 130 124 121 115 96 70 54 40 28 20 10 5 359 355 344 328 318 313 315 316 313 309 301 295 288 272 262 257 264
229 253 264 268 86 106 169 175 187 166 112 127 123 99 105 133 143 145 145 146 135 132 133 128 120 81 47 31 16 1 352 349 346 349 343 339 340 332 326 326 317 312 301 293 292 280 269 262 259
259 275 287 286 255 195 160 180 199 196 168 158 156 115 125 153 155 155 154 152 146 145 150 146 133 133 118 49 6 358 355 351 351 348 342 339 335 323 318 311 313 308 300 299 297 282 269 268 265
265 269 260 255 252 197 162 181 196 233 139 128 182 156 137 156 160 163 163 165 164 167 171 168 131 74 356 18 66 13 7 6 357 354 349 330 301 280 280 279 301 303 297 299 302 285 266 258 261
228 249 254 243 250 201 175 193 177 189 169 168 187 141 119 146 161 171 176 182 181 184 185 178 174 51 353 348 40 4 21 14 314 312 343 304 301 303 284 319 325 301 295 297 300 285 262 254 243
211 248 261 259 252 246 194 210 190 192 202 201 184 170 155 163 174 183 189 190 188 189 183 181 208 348 342 352 349 331 323 330 317 323 325 316 313 308 305 304 277 283 287 272 274 274 259 250 242
219 244 255 247 243 244 215 210 203 221 232 221 197 177 174 180 188 195 198 197 195 192 183 191 199 29 343 344 339 335 326 323 315 323 319 313 307 301 297 299 278 269 265 274 260 253 256 254 251
225 244 250 255 229 229 229 215 218 230 245 223 191 174 177 189 195 200 202 203 201 201 193 188 223 304 334 340 339 326 327 327 327 326 324 320 314 307 308 297 302 293 284 286 281 272 262 259 255
227 241 237 246 238 236 233 230 240 241 237 207 182 182 189 196 199 200 201 205 209 203 191 188 217 305 328 340 327 323 331 327 327 329 318 321 314 309 308 300 300 293 292 282 280 275 267 262 254
231 241 249 248 234 228 237 242 238 240 201 193 192 194 195 199 203 200 202 208 208 202 185 174 200 284 322 326 328 333 331 323 320 326 320 319 316 309 307 302 302 298 293 292 285 274 270 262 256
229 239 242 226 225 227 244 246 231 227 193 200 200 196 198 200 205 210 206 204 201 191 181 171 198 290 318 328 335 327 322 324 324 325 320 320 318 309 306 304 302 299 294 290 283 279 270 260 255
223 238 244 218 214 207 236 264 228 192 203 209 206 197 200 200 208 209 202 198 188 182 176 158 181 286 323 333 329 325 323 324 320 320 319 318 319 313 307 300 300 301 297 292 285 277 270 259 255
223 239 246 234 204 211 236 271 256 204 219 221 209 202 199 196 200 199 197 192 184 180 175 168 172 301 342 338 321 320 323 321 318 319 320 322 321 313 305 301 299 300 295 289 285 279 275 266 259
231 242 247 246 210 233 248 264 261 233 238 235 216 205 199 196 193 187 182 180 176 174 171 163 163 302 348 323 321 327 327 325 324 325 322 322 316 315 310 300 297 297 291 289 282 279 270 269 263
252 251 255 266 281 255 264 272 275 252 232 228 216 208 200 192 179 172 170 172 173 171 171 164 181 158 335 334 329 330 333 330 331 330 329 323 317 315 311 305 304 299 290 290 288 280 269 263 266
241 249 255 265 266 268 282 281 273 244 231 229 218 204 198 186 179 172 172 175 179 173 175 175 178 181 339 342 328 325 323 321 328 325 325 326 324 319 311 304 302 297 292 287 287 274 272 265 249
237 247 256 274 284 254 287 273 239 190 208 210 212 205 193 189 187 177 177 179 179 179 176 180 186 190 339 324 319 319 317 310 322 332 335 334 327 321 313 308 304 300 292 292 288 277 266 266 249
239 246 256 262 267 270 278 286 245 189 204 196 191 189 187 183 184 178 178 181 184 181 177 185 184 196 217 278 318 329 331 335 339 335 334 326 324 325 322 314 307 298 297 293 286 280 270 263 256
236 206 233 246 259 268 247 269 251 179 203 181 180 183 182 179 180 176 179 180 181 177 179 184 185 194 229 284 309 309 326 334 334 333 334 328 331 328 326 320 313 301 295 293 290 285 275 262 255
166 172 191 223 244 251 245 258 256 174 168 152 163 176 179 176 175 172 169 173 175 174 177 184 191 198 230 269 289 306 323 326 330 335 338 332 331 328 335 323 311 301 296 292 287 282 270 265 260
197 216 222 217 220 236 170 252 259 82 124 205 180 175 176 177 177 175 175 178 178 179 182 188 193 209 233 270 292 305 313 317 325 331 335 332 334 335 338 329 314 311 304 295 287 279 274 260 258
205 229 245 259 249 231 205 248 235 100 234 227 205 176 175 179 181 182 183 182 183 184 187 195 199 215 234 268 294 305 309 310 325 328 330 331 335 336 334 327 320 316 312 299 280 278 273 263 254
194 221 270 279 282 274 245 258 255 166 189 185 178 175 182 185 185 187 185 186 188 189 191 197 202 215 230 253 281 302 314 315 321 322 326 330 333 333 333 332 327 325 322 316 303 279 271 264 254
282 190 208 241 264 266 266 256 248 181 190 187 190 189 187 187 188 187 186 188 190 190 191 193 203 214 224 242 268 292 302 313 318 322 329 331 333 334 334 335 333 331 325 316 307 296 286 267 258
178 199 226 238 264 280 286 290 58 248 206 205 203 198 192 191 191 189 188 187 187 186 186 191 199 208 214 230 252 271 297 313 317 324 329 329 329 332 333 334 338 335 333 330 318 311 302 277 277
233 236 230 246 239 256 280 287 120 231 237 229 222 208 199 196 193 190 186 183 185 186 187 190 194 196 199 213 239 266 292 304 317 331 332 328 327 330 336 344 348 351 346 344 334 326 310 284 283
Height
1525 1525 1525 1526 1524 1520 1520 1518 1515 1516 1516 1519 1519 1519 1518 1519 1522 1529 1530 1528 1529 1529 1530 1529 1529 1530 1530 1530 1531 1531 1531 1531 1531 1531 1531 1531 1530 1530 1530 1530 1530 1529 1529 1529 1529 1529 1529 1528 1528
1525 1525 1527 1526 1521 1523 1522 1516 1516 1517 1519 1521 1521 1521 1520 1523 1526 1528 1528 1529 1529 1530 1530 1530 1530 1530 1530 1530 1530 1530 1530 1530 1530 1530 1530 1529 1529 1529 1529 1529 1529 1529 1528 1529 1528 1528 1528 1528 1528
1525 1525 1527 1522 1520 1521 1521 1517 1517 1519 1521 1521 1521 1522 1523 1525 1528 1529 1529 1529 1530 1531 1531 1531 1530 1530 1530 1530 1530 1530 1529 1529 1529 1529 1528 1528 1528 1528 1527 1527 1527 1527 1527 1527 1527 1527 1527 1527 1527
1526 1527 1526 1521 1520 1517 1516 1516 1517 1519 1521 1522 1522 1523 1525 1528 1529 1529 1529 1530 1531 1531 1531 1531 1530 1530 1530 1530 1530 1529 1529 1529 1528 1528 1527 1527 1526 1526 1526 1526 1525 1525 1525 1525 1526 1526 1525 1526 1526
1526 1525 1521 1520 1519 1516 1516 1517 1518 1518 1520 1522 1522 1522 1526 1529 1528 1529 1530 1531 1532 1532 1532 1532 1530 1530 1530 1530 1529 1529 1528 1528 1527 1527 1526 1525 1525 1524 1524 1524 1523 1523 1523 1523 1523 1523 1524 1524 1524
1526 1523 1521 1522 1519 1517 1516 1518 1518 1518 1520 1522 1523 1523 1526 1529 1529 1530 1530 1531 1532 1532 1532 1532 1530 1530 1530 1529 1529 1528 1528 1527 1526 1526 1525 1524 1523 1523 1522 1522 1521 1521 1521 1521 1521 1521 1522 1522 1523
1525 1521 1520 1519 1519 1517 1516 1518 1517 1518 1519 1521 1523 1523 1526 1528 1529 1530 1531 1531 1532 1532 1532 1532 1532 1531 1529 1529 1528 1527 1527 1526 1525 1524 1523 1522 1521 1521 1520 1520 1519 1519 1519 1519 1519 1519 1520 1520 1521
1524 1522 1519 1518 1519 1517 1517 1518 1518 1519 1519 1522 1523 1522 1524 1528 1529 1530 1531 1531 1532 1532 1532 1532 1531 1531 1530 1529 1527 1526 1525 1524 1523 1522 1522 1521 1520 1519 1518 1518 1517 1516 1516 1517 1517 1517 1517 1518 1519
1523 1523 1520 1516 1517 1515 1516 1517 1519 1520 1520 1522 1523 1523 1525 1527 1528 1529 1531 1531 1532 1531 1532 1531 1531 1530 1529 1528 1527 1525 1524 1523 1522 1521 1520 1519 1519 1518 1517 1516 1515 1514 1514 1514 1514 1514 1515 1516 1516
1522 1521 1516 1514 1514 1513 1515 1516 1517 1518 1519 1520 1521 1523 1524 1526 1527 1529 1530 1531 1531 1531 1531 1531 1530 1530 1529 1527 1526 1525 1524 1522 1521 1520 1519 1518 1517 1516 1515 1513 1512 1512 1511 1511 1511 1512 1512 1513 1515
1518 1516 1513 1514 1514 1514 1514 1515 1516 1516 1516 1517 1519 1521 1523 1525 1526 1528 1529 1530 1530 1530 1530 1530 1529 1529 1528 1527 1525 1524 1522 1521 1520 1518 1517 1515 1515 1514 1513 1512 1511 1510 1510 1510 1510 1510 1510 1511 1512
1515 1513 1514 1513 1513 1514 1513 1514 1514 1514 1514 1516 1517 1519 1521 1523 1525 1526 1528 1529 1529 1529 1529 1529 1528 1528 1527 1526 1524 1523 1522 1520 1519 1517 1515 1514 1513 1512 1511 1510 1509 1508 1508 1507 1507 1507 1508 1508 1509
1513 1511 1512 1512 1513 1513 1513 1512 1513 1512 1513 1515 1516 1518 1520 1521 1523 1525 1526 1527 1528 1528 1527 1527 1527 1527 1526 1525 1523 1522 1520 1519 1517 1515 1514 1513 1511 1510 1509 1508 1507 1506 1506 1505 1505 1505 1506 1506 1506
1510 1510 1511 1511 1511 1511 1511 1510 1512 1510 1512 1513 1515 1516 1518 1520 1522 1523 1524 1525 1526 1527 1527 1526 1526 1525 1525 1524 1522 1521 1519 1517 1516 1514 1512 1511 1510 1509 1507 1506 1505 1504 1504 1503 1503 1503 1503 1503 1504
1511 1510 1509 1509 1509 1510 1511 1508 1506 1508 1510 1511 1513 1514 1516 1518 1520 1521 1523 1524 1525 1525 1525 1525 1525 1524 1523 1522 1521 1519 1518 1516 1515 1513 1511 1510 1508 1507 1506 1504 1504 1503 1502 1501 1501 1501 1500 1501 1501
1508 1508 1509 1506 1507 1509 1512 1508 1503 1506 1508 1509 1511 1512 1514 1516 1518 1520 1521 1522 1523 1523 1524 1524 1523 1523 1522 1521 1519 1518 1517 1515 1513 1512 1510 1508 1507 1505 1504 1502 1502 1501 1500 1499 1498 1498 1498 1498 1498
1507 1508 1507 1505 1505 1506 1508 1505 1502 1505 1506 1507 1509 1510 1512 1514 1516 1517 1519 1520 1521 1522 1522 1522 1522 1522 1520 1519 1518 1516 1515 1513 1512 1510 1508 1507 1505 1503 1502 1500 1499 1499 1498 1497 1496 1496 1496 1496 1496
1507 1505 1504 1503 1502 1504 1505 1501 1499 1502 1504 1504 1506 1508 1510 1512 1514 1515 1516 1518 1519 1520 1521 1521 1521 1520 1519 1518 1517 1516 1514 1512 1511 1509 1507 1504 1503 1501 1500 1499 1497 1496 1495 1494 1494 1494 1493 1494 1493
1500 1503 1504 1500 1500 1503 1500 1497 1495 1498 1501 1501 1502 1504 1506 1509 1512 1514 1514 1516 1517 1518 1520 1520 1520 1519 1518 1517 1516 1515 1513 1511 1510 1507 1505 1503 1501 1499 1498 1496 1495 1494 1493 1492 1492 1491 1491 1492 1492
1503 1504 1503 1499 1501 1501 1498 1495 1491 1495 1497 1499 1500 1502 1504 1507 1510 1512 1513 1514 1516 1517 1518 1519 1519 1518 1517 1516 1515 1513 1511 1510 1508 1505 1503 1501 1499 1497 1496 1494 1493 1492 1491 1490 1489 1489 1489 1490 1490
1502 1503 1502 1502 1501 1500 1500 1494 1489 1492 1495 1497 1499 1500 1503 1505 1508 1510 1511 1513 1514 1516 1517 1517 1517 1517 1516 1514 1514 1512 1511 1509 1508 1505 1502 1500 1497 1495 1493 1492 1491 1490 1489 1488 1488 1487 1487 1488 1488
1503 1499 1501 1502 1504 1501 1502 1502 1488 1488 1491 1494 1496 1499 1501 1504 1506 1508 1510 1511 1513 1514 1515 1516 1516 1515 1515 1514 1513 1512 1510 1509 1506 1504 1501 1499 1496 1494 1492 1490 1489 1488 1487 1487 1486 1486 1486 1486 1486
1498 1501 1501 1502 1502 1502 1499 1500 1488 1487 1488 1489 1493 1496 1499 1502 1504 1506 1508 1510 1512 1513 1513 1514 1514 1514 1513 1513 1511 1510 1509 1508 1506 1503 1501 1498 1496 1493 1490 1488 1487 1486 1485 1485 1484 1484 1484 1484 1485
1500 1502 1503 1501 1500 1507 1498 1499 1493 1483 1484 1487 1491 1495 1498 1500 1503 1505 1507 1508 1510 1511 1512 1513 1513 1513 1512 1511 1511 1510 1508 1506 1505 1502 1500 1498 1495 1493 1490 1487 1486 1485 1484 1483 1482 1482 1482 1482 1483
1500 1503 1509 1509 1508 1503 1496 1499 1491 1484 1486 1488 1490 1493 1496 1499 1501 1503 1505 1507 1508 1509 1510 1511 1512 1512 1511 1511 1510 1509 1507 1506 1504 1502 1499 1497 1495 1492 1489 1487 1485 1484 1482 1481 1481 1480 1480 1480 1481
1496 1497 1507 1513 1510 1500 1498 1496 1485 1484 1487 1489 1491 1492 1495 1497 1499 1501 1503 1505 1507 1508 1509 1510 1510 1511 1510 1509 1509 1508 1506 1505 1503 1501 1499 1497 1494 1491 1488 1486 1484 1483 1481 1480 1479 1479 1479 1479 1479
1496 1495 1492 1497 1499 1503 1493 1489 1482 1484 1485 1487 1489 1491 1493 1495 1498 1500 1502 1503 1505 1506 1507 1508 1509 1509 1509 1508 1507 1506 1505 1504 1502 1500 1498 1496 1494 1491 1488 1486 1484 1482 1480 1479 1478 1477 1477 1477 1477
1494 1492 1495 1498 1508 1508 1499 1492 1486 1482 1482 1484 1487 1489 1491 1494 1496 1498 1500 1501 1503 1504 1505 1506 1507 1508 1507 1507 1506 1505 1504 1503 1501 1500 1498 1496 1493 1490 1488 1485 1483 1481 1480 1478 1477 1476 1475 1475 1475
1496 1496 1494 1494 1496 1504 1506 1494 1478 1478 1479 1481 1483 1486 1489 1491 1493 1495 1497 1499 1501 1502 1503 1505 1506 1506 1506 1506 1505 1504 1503 1502 1501 1499 1497 1495 1492 1490 1488 1486 1483 1481 1480 1478 1476 1475 1474 1474 1474
1490 1489 1491 1496 1497 1496 1497 1492 1475 1478 1480 1481 1483 1485 1487 1489 1491 1493 1495 1497 1498 1500 1502 1503 1504 1504 1504 1504 1504 1503 1502 1501 1500 1498 1496 1494 1492 1490 1488 1486 1484 1482 1480 1478 1476 1475 1474 1474 1473